Flag for Venezuela Weather past 2 weeks in Barquisimeto, Venezuela

Now
73 °F

Passing clouds.


Feels Like: 73 °F
Forecast: 67 / 91 °F
Wind: 6 mph from East

Location: Barquisimeto Airport

Current Time: Dec 22, 2014 at 12:01:30 AM

Latest Report: Dec 21, 2014 at 10:30 PM


Visibility: N/A

Pressure: 30.09 "Hg

Humidity: 83%

Dew point: 68 °F

Location of BarquisimetoLocation

Historic Weather in Barquisimeto — Graph

°F

Barquisimeto temperature yesterday

Maximum temperature yesterday: 88 °F (at 1:30 PM)
Minimum temperature yesterday: 70 °F (at 4:30 AM)
Average temperature yesterday: 79 °F

Past Weeks' High & Low Weather Summary

 TemperatureHumidityPressure
High88 °F (Dec 7, 2:30 PM)94% (Dec 7, 5:30 AM)30.09 "Hg (Dec 7, 5:30 AM)
Low68 °F (Dec 16, 5:30 AM)16% (Dec 9, 12:30 PM)29.68 "Hg (Dec 15, 7:30 AM)
Average78 °F69%30.00 "Hg
* Reported Dec 6 10:30 PM — Dec 21 10:30 PM, Barquisimeto, Weather by CustomWeather, © 2014

Note: Actual official high and low records may vary slightly from our data, if they occured in-between our weather recording intervals... More about our weather records

Advertising

Barquisimeto weather history for previous 24 hours

 ConditionsComfort  
Time TempWeatherWind HumidityBarometerVisibility
10:30 PM
Dec 21
73 °FPassing clouds.6 mph83%30.09 "HgN/A
9:30 PM73 °FPassing clouds.9 mph83%30.07 "HgN/A
8:30 PM75 °FPassing clouds.7 mph78%30.04 "HgN/A
7:30 PM75 °FPassing clouds.8 mph78%30.01 "HgN/A
6:30 PM77 °FPassing clouds.14 mph74%29.98 "HgN/A
5:30 PM82 °FPassing clouds.12 mph58%29.98 "HgN/A
4:30 PM86 °FScattered clouds.15 mph49%30.01 "HgN/A
3:30 PM88 °FScattered clouds.9 mph46%30.01 "HgN/A
2:30 PM88 °FScattered clouds.9 mph46%30.01 "HgN/A
1:30 PM88 °FScattered clouds.13 mph46%30.04 "HgN/A
12:30 PM86 °FScattered clouds.15 mph49%30.07 "HgN/A
11:30 AM84 °FScattered clouds.7 mph51%30.09 "HgN/A
10:30 AM82 °FScattered clouds.5 mph55%30.09 "HgN/A
9:30 AM82 °FScattered clouds.6 mph58%30.07 "HgN/A
8:30 AM77 °FScattered clouds.3 mph69%30.04 "HgN/A
7:30 AM72 °FScattered clouds.2 mph83%30.04 "HgN/A
6:30 AM70 °FBroken clouds.3 mph83%30.01 "HgN/A
5:30 AM70 °FPassing clouds.3 mph83%30.01 "HgN/A
4:30 AM70 °FPassing clouds.5 mph83%30.01 "HgN/A
1:30 AM73 °FPassing clouds.6 mph83%30.04 "HgN/A
Weather by CustomWeather, © 2014

See weather overviewHow to use our weather pages